When you browse on this site, cookies collect data to enhance your experience and personalize the content and advertising you see.
Visit our Privacy Policy to learn more. By continuing to use the site, you agree to this use of cookies and data.
  • In Romania
  • List of Countries
  • For 7 days
  • Water Temperature
  • Weather Map
  • Weather Widgets
  • user-avatar
    Login

    Hourly Weather Kerns

    Today, 22 August, Thursday

    Time Temperature Precipitation Wind Pressure Humidity
    00:00 +14°C° 0 mm 3 mps 763 mmHg 96%
    01:00 +14°C° 0 mm 3 mps 763 mmHg 97%
    02:00 +14°C° 0 mm 3 mps 763 mmHg 97%
    03:00 +14°C° 0 mm 3 mps 763 mmHg 96%
    04:00 +14°C° 0 mm 3 mps 763 mmHg 97%
    05:00 +15°C° 0 mm 4 mps 763 mmHg 97%
    06:00 +15°C° 0 mm 4 mps 763 mmHg 96%
    07:00 +15°C° 0 mm 4 mps 763 mmHg 96%
    08:00 +19°C° 0 mm 4 mps 763 mmHg 79%
    09:00 +22°C° 0 mm 4 mps 763 mmHg 63%
    10:00 +26°C° 0 mm 5 mps 764 mmHg 45%
    11:00 +27°C° 0 mm 5 mps 763 mmHg 41%
    12:00 +27°C° 0 mm 5 mps 762 mmHg 36%
    13:00 +28°C° 0 mm 6 mps 762 mmHg 32%
    14:00 +28°C° 0 mm 5 mps 761 mmHg 31%
    15:00 +27°C° 0 mm 5 mps 761 mmHg 31%
    16:00 +27°C° 0 mm 5 mps 761 mmHg 31%
    17:00 +23°C° 0 mm 4 mps 761 mmHg 40%
    18:00 +20°C° 0 mm 4 mps 762 mmHg 49%
    19:00 +17°C° 0 mm 3 mps 762 mmHg 58%
    20:00 +16°C° 0 mm 3 mps 762 mmHg 58%
    21:00 +15°C° 0 mm 2 mps 763 mmHg 57%
    22:00 +15°C° 0 mm 2 mps 763 mmHg 57%
    23:00 +14°C° 0 mm 2 mps 763 mmHg 55%

    Tomorrow, 23 August, Friday

    Time Temperature Precipitation Wind Pressure Humidity
    00:00 +14°C° 0 mm 2 mps 763 mmHg 52%
    01:00 +14°C° 0 mm 2 mps 762 mmHg 50%
    02:00 +14°C° 0 mm 2 mps 762 mmHg 51%
    03:00 +14°C° 0 mm 2 mps 762 mmHg 52%
    04:00 +14°C° 0 mm 2 mps 762 mmHg 53%
    05:00 +14°C° 0 mm 2 mps 763 mmHg 55%
    06:00 +14°C° 0 mm 2 mps 763 mmHg 58%
    07:00 +14°C° 0 mm 2 mps 763 mmHg 60%
    08:00 +18°C° 0 mm 3 mps 763 mmHg 52%
    09:00 +21°C° 0 mm 3 mps 763 mmHg 43%
    10:00 +26°C° 0 mm 4 mps 763 mmHg 35%
    11:00 +27°C° 0 mm 4 mps 763 mmHg 35%
    12:00 +27°C° 0 mm 5 mps 762 mmHg 36%
    13:00 +28°C° 0 mm 5 mps 762 mmHg 36%
    14:00 +27°C° 0 mm 5 mps 761 mmHg 40%
    15:00 +26°C° 0 mm 5 mps 761 mmHg 45%
    16:00 +26°C° 0 mm 5 mps 761 mmHg 49%
    17:00 +22°C° 0 mm 5 mps 762 mmHg 62%
    18:00 +20°C° 0 mm 4 mps 762 mmHg 74%
    19:00 +18°C° 0 mm 4 mps 763 mmHg 87%
    20:00 +17°C° 0 mm 4 mps 763 mmHg 89%
    21:00 +15°C° 0 mm 4 mps 764 mmHg 92%
    22:00 +15°C° 0 mm 4 mps 764 mmHg 95%
    23:00 +15°C° 0 mm 4 mps 764 mmHg 95%

    Day after tomorrow, 24 August, Saturday

    Time Temperature Precipitation Wind Pressure Humidity
    00:00 +14°C° 0 mm 4 mps 763 mmHg 95%
    01:00 +14°C° 0 mm 4 mps 763 mmHg 96%
    02:00 +14°C° 0 mm 4 mps 763 mmHg 95%
    03:00 +14°C° 0 mm 4 mps 763 mmHg 95%
    04:00 +14°C° 0 mm 4 mps 763 mmHg 95%
    05:00 +14°C° 0 mm 4 mps 763 mmHg 94%
    06:00 +14°C° 0 mm 4 mps 763 mmHg 93%
    07:00 +14°C° 0 mm 4 mps 764 mmHg 92%
    08:00 +18°C° 0 mm 4 mps 764 mmHg 79%
    09:00 +21°C° 0 mm 4 mps 764 mmHg 65%
    10:00 +25°C° 0 mm 4 mps 764 mmHg 52%
    11:00 +26°C° 0 mm 4 mps 763 mmHg 49%
    12:00 +27°C° 0 mm 4 mps 763 mmHg 47%
    13:00 +28°C° 0 mm 4 mps 762 mmHg 44%
    14:00 +28°C° 0 mm 4 mps 762 mmHg 48%
    15:00 +27°C° 0 mm 4 mps 761 mmHg 52%
    16:00 +27°C° 0 mm 4 mps 761 mmHg 57%
    17:00 +24°C° 0 mm 3 mps 761 mmHg 69%
    18:00 +21°C° 0 mm 3 mps 762 mmHg 82%
    19:00 +19°C° 0 mm 2 mps 762 mmHg 94%
    20:00 +19°C° 0 mm 2 mps 762 mmHg 95%
    21:00 +18°C° 0 mm 2 mps 763 mmHg 96%
    22:00 +18°C° 0 mm 2 mps 763 mmHg 97%
    23:00 +18°C° 0 mm 2 mps 763 mmHg 97%

    25 August, Sunday

    Time Temperature Precipitation Wind Pressure Humidity
    00:00 +18°C° 0 mm 2 mps 762 mmHg 98%
    01:00 +17°C° 0 mm 3 mps 762 mmHg 98%
    02:00 +17°C° 0.1 mm 3 mps 762 mmHg 98%
    03:00 +17°C° 0.1 mm 3 mps 761 mmHg 97%
    04:00 +17°C° 0.1 mm 2 mps 761 mmHg 97%
    05:00 +18°C° 0.2 mm 3 mps 761 mmHg 97%
    06:00 +18°C° 0.2 mm 3 mps 762 mmHg 97%
    07:00 +19°C° 0.2 mm 3 mps 762 mmHg 98%
    08:00 +21°C° 0.2 mm 3 mps 762 mmHg 89%
    09:00 +23°C° 0.2 mm 4 mps 762 mmHg 80%
    10:00 +26°C° 0.2 mm 4 mps 762 mmHg 72%
    11:00 +26°C° 0.2 mm 4 mps 762 mmHg 68%
    12:00 +27°C° 0.2 mm 4 mps 761 mmHg 65%
    13:00 +27°C° 0.2 mm 4 mps 760 mmHg 62%
    14:00 +27°C° 0.1 mm 4 mps 760 mmHg 63%
    15:00 +26°C° 0.1 mm 4 mps 760 mmHg 65%
    16:00 +26°C° 0.1 mm 4 mps 759 mmHg 67%
    17:00 +23°C° 0 mm 4 mps 760 mmHg 76%
    18:00 +21°C° 0 mm 4 mps 760 mmHg 84%
    19:00 +19°C° 0 mm 3 mps 760 mmHg 93%
    20:00 +19°C° 0 mm 3 mps 761 mmHg 94%
    21:00 +19°C° 0 mm 3 mps 761 mmHg 96%
    22:00 +18°C° 0 mm 3 mps 762 mmHg 97%
    23:00 +18°C° 0 mm 3 mps 761 mmHg 97%

    26 August, Monday

    Time Temperature Precipitation Wind Pressure Humidity
    00:00 +18°C° 0 mm 3 mps 761 mmHg 97%
    01:00 +18°C° 0 mm 3 mps 761 mmHg 97%
    02:00 +18°C° 0.1 mm 3 mps 761 mmHg 97%
    03:00 +18°C° 0.1 mm 3 mps 761 mmHg 97%
    04:00 +18°C° 0.1 mm 2 mps 760 mmHg 97%
    05:00 +18°C° 0 mm 3 mps 761 mmHg 97%
    06:00 +18°C° 0 mm 3 mps 761 mmHg 96%
    07:00 +18°C° 0 mm 3 mps 762 mmHg 96%
    08:00 +20°C° 0 mm 3 mps 762 mmHg 83%
    09:00 +24°C° 0 mm 3 mps 762 mmHg 69%
    10:00 +27°C° 0 mm 4 mps 762 mmHg 56%
    11:00 +27°C° 0 mm 4 mps 761 mmHg 54%
    12:00 +28°C° 0 mm 4 mps 761 mmHg 51%
    13:00 +29°C° 0 mm 5 mps 760 mmHg 49%
    14:00 +28°C° 0 mm 5 mps 760 mmHg 52%
    15:00 +27°C° 0 mm 5 mps 759 mmHg 54%
    16:00 +27°C° 0 mm 5 mps 759 mmHg 56%
    17:00 +25°C° 0 mm 5 mps 760 mmHg 66%
    18:00 +22°C° 0 mm 4 mps 760 mmHg 77%
    19:00 +20°C° 0 mm 4 mps 761 mmHg 87%
    20:00 +19°C° 0 mm 4 mps 761 mmHg 90%
    21:00 +19°C° 0 mm 3 mps 761 mmHg 93%
    22:00 +18°C° 0 mm 3 mps 762 mmHg 96%
    23:00 +18°C° 0 mm 3 mps 762 mmHg 97%

    27 August, Tuesday

    Time Temperature Precipitation Wind Pressure Humidity
    00:00 +18°C° 0 mm 3 mps 761 mmHg 97%
    01:00 +18°C° 0 mm 3 mps 761 mmHg 97%
    02:00 +18°C° 0 mm 3 mps 761 mmHg 97%
    03:00 +18°C° 0 mm 3 mps 761 mmHg 97%
    04:00 +18°C° 0 mm 3 mps 761 mmHg 96%
    05:00 +18°C° 0 mm 4 mps 761 mmHg 96%
    06:00 +18°C° 0 mm 4 mps 761 mmHg 96%
    07:00 +18°C° 0 mm 4 mps 762 mmHg 96%
    08:00 +20°C° 0 mm 4 mps 762 mmHg 81%
    09:00 +23°C° 0 mm 5 mps 762 mmHg 67%
    10:00 +27°C° 0 mm 5 mps 763 mmHg 52%
    11:00 +27°C° 0 mm 5 mps 762 mmHg 49%
    12:00 +28°C° 0 mm 5 mps 761 mmHg 46%
    13:00 +29°C° 0 mm 6 mps 761 mmHg 42%
    14:00 +28°C° 0 mm 6 mps 761 mmHg 44%
    15:00 +28°C° 0 mm 6 mps 760 mmHg 45%
    16:00 +27°C° 0 mm 6 mps 760 mmHg 46%
    17:00 +25°C° 0 mm 5 mps 760 mmHg 56%
    18:00 +22°C° 0 mm 5 mps 761 mmHg 65%
    19:00 +20°C° 0 mm 4 mps 761 mmHg 74%
    20:00 +19°C° 0 mm 4 mps 762 mmHg 78%
    21:00 +18°C° 0 mm 4 mps 762 mmHg 82%
    22:00 +18°C° 0 mm 4 mps 762 mmHg 86%
    23:00 +17°C° 0 mm 4 mps 762 mmHg 87%
    Show more